Location: Oak Glen
(34.0495°N, 116.9470°E)
Time: 22:23:35
(UTC-07:00)

Tiangong 1 - Pass Details

Date: 14 October 2017
Orbit: 293 x 320 km, 42.8° (Epoch: 19 October)

Event Time Altitude Azimuth Distance (km) Brightness Sun altitude
Rises 03:27:26 0° 306° (NW) 2,037 5.6 -10.7°
Reaches altitude 10° 03:29:44 10° 324° (NW) 1,201 4.0 -11.1°
Maximum altitude 03:31:49 20° 15° (NNE) 798 2.5 -11.6°
Enters shadow 03:32:50 16° 47° (NE) 908 2.5 -11.8°
